OK2IGL-6 Weather Reports


Display with metric or nautical units.
time (UTC)temp
F
wind
direction
speed
MPH
gust
MPH
rain 1hr
in
rain 24hr
in
rain mn
in
humidity
%
barometer
mb
20260503034230 50 0 0.0 0.0 0.00 0.00 0.00 70 1015.0
20260503033240 50 0 0.0 0.0 0.00 0.00 0.00 71 1016.0
20260503032530 50 0 0.0 0.0 0.00 0.00 0.00 72 1015.0
20260503031821 48 0 0.0 0.0 0.00 0.00 0.00 74 1016.0
20260503031111 48 0 0.0 0.0 0.00 0.00 0.00 76 1016.0
20260503030402 46 0 0.0 0.0 0.00 0.00 0.00 80 1016.0
20260503025652 43 0 0.0 0.0 0.00 0.00 0.00 85 1015.0
20260503024943 42 0 0.0 0.0 0.00 0.00 0.00 84 1016.0
20260503024233 42 0 0.0 0.0 0.00 0.00 0.00 83 1016.0
20260503023524 42 0 0.0 0.0 0.00 0.00 0.00 83 1015.0
20260503022814 42 0 0.0 0.0 0.00 0.00 0.00 83 1015.0
20260503022105 42 0 0.0 0.0 0.00 0.00 0.00 83 1016.0
20260503021356 42 0 0.0 0.0 0.00 0.00 0.00 83 1015.0
20260503020646 42 0 0.0 0.0 0.00 0.00 0.00 83 1015.0
20260503015937 42 0 0.0 0.0 0.00 0.00 0.00 83 1016.0
20260503015227 42 0 0.0 0.0 0.00 0.00 0.00 83 1016.0
20260503014237 42 0 0.0 0.0 0.00 0.00 0.00 83 1015.0
20260503013527 42 0 0.0 0.0 0.00 0.00 0.00 81 1015.0
20260503012818 42 0 0.0 0.0 0.00 0.00 0.00 82 1015.0
20260503012108 42 0 0.0 0.0 0.00 0.00 0.00 80 1016.0
20260503011359 42 0 0.0 0.0 0.00 0.00 0.00 81 1015.0
20260503010649 42 0 0.0 0.0 0.00 0.00 0.00 81 1015.0
20260503005940 42 0 0.0 0.0 0.00 0.00 0.00 80 1016.0
20260503005230 42 0 0.0 0.0 0.00 0.00 0.00 79 1016.0
20260503004521 42 0 0.0 0.0 0.00 0.00 0.00 81 1016.0
20260503003812 42 0 0.0 0.0 0.00 0.00 0.00 78 1016.0
20260503003102 43 0 0.0 0.0 0.00 0.00 0.00 79 1016.0
20260503002353 43 0 0.0 0.0 0.00 0.00 0.00 79 1016.0
20260503001643 44 0 0.0 0.0 0.00 0.00 0.00 79 1016.0
20260503000934 44 0 0.0 0.0 0.00 0.00 0.00 78 1016.0
20260503000225 44 0 0.0 0.0 0.00 0.00 0.00 78 1016.0
20260502235234 44 0 0.0 0.0 0.00 0.00 0.00 78 1016.0
20260502234524 44 0 0.0 0.0 0.00 0.00 0.00 76 1016.0
20260502233815 44 0 0.0 0.0 0.00 0.00 0.00 78 1016.0
20260502233105 44 0 0.0 0.0 0.00 0.00 0.00 77 1016.0
20260502232356 45 0 0.0 0.0 0.00 0.00 0.00 76 1016.0
20260502231647 46 0 0.0 0.0 0.00 0.00 0.00 77 1016.0
20260502230937 46 0 0.0 0.0 0.00 0.00 0.00 76 1016.0
20260502230228 46 0 0.0 0.0 0.00 0.00 0.00 76 1016.0
20260502225518 46 0 0.0 0.0 0.00 0.00 0.00 76 1016.0
20260502224809 46 0 0.0 0.0 0.00 0.00 0.00 76 1016.0
20260502224059 46 0 0.0 0.0 0.00 0.00 0.00 76 1016.0
20260502223350 46 0 0.0 0.0 0.00 0.00 0.00 74 1016.0
20260502222640 47 0 0.0 0.0 0.00 0.00 0.00 75 1016.0
20260502221931 47 0 0.0 0.0 0.00 0.00 0.00 74 1016.0
20260502221221 48 0 0.0 0.0 0.00 0.00 0.00 74 1016.0
20260502220231 48 0 0.0 0.0 0.00 0.00 0.00 73 1016.0
20260502215522 48 0 0.0 0.0 0.00 0.00 0.00 73 1016.0
20260502214812 48 0 0.0 0.0 0.00 0.00 0.00 73 1016.0
20260502214103 48 0 0.0 0.0 0.00 0.00 0.00 72 1016.0
20260502213353 49 0 0.0 0.0 0.00 0.00 0.00 71 1016.0
20260502212644 50 0 0.0 0.0 0.00 0.00 0.00 72 1016.0
20260502211934 50 0 0.0 0.0 0.00 0.00 0.00 71 1016.0
20260502211225 50 0 0.0 0.0 0.00 0.00 0.00 71 1016.0
20260502210515 50 0 0.0 0.0 0.00 0.00 0.00 71 1016.0
20260502205806 51 0 0.0 0.0 0.00 0.00 0.00 71 1017.0
20260502205056 52 0 0.0 0.0 0.00 0.00 0.00 70 1016.0
20260502204347 52 0 0.0 0.0 0.00 0.00 0.00 70 1016.0
20260502203638 52 0 0.0 0.0 0.00 0.00 0.00 70 1017.0
20260502202928 52 0 0.0 0.0 0.00 0.00 0.00 70 1016.0
20260502202219 52 0 0.0 0.0 0.00 0.00 0.00 69 1016.0
20260502201228 53 0 0.0 0.0 0.00 0.00 0.00 68 1016.0
20260502200519 54 0 0.0 0.0 0.00 0.00 0.00 69 1017.0
20260502195809 54 0 0.0 0.0 0.00 0.00 0.00 68 1016.0
20260502195100 54 0 0.0 0.0 0.00 0.00 0.00 67 1016.0
20260502194350 55 0 0.0 0.0 0.00 0.00 0.00 67 1017.0
20260502193641 56 0 0.0 0.0 0.00 0.00 0.00 66 1017.0
20260502192931 56 0 0.0 0.0 0.00 0.00 0.00 65 1016.0
20260502192222 57 0 0.0 0.0 0.00 0.00 0.00 65 1016.0
20260502191512 58 0 0.0 0.0 0.00 0.00 0.00 64 1017.0
20260502190803 58 0 0.0 0.0 0.00 0.00 0.00 64 1016.0
20260502190053 58 0 0.0 0.0 0.00 0.00 0.00 63 1016.0
20260502185344 60 0 0.0 0.0 0.00 0.00 0.00 62 1016.0
20260502184635 60 0 0.0 0.0 0.00 0.00 0.00 61 1017.0
20260502183925 60 0 0.0 0.0 0.00 0.00 0.00 60 1016.0
20260502183216 62 0 0.0 0.0 0.00 0.00 0.00 61 1016.0
20260502182225 62 0 0.0 0.0 0.00 0.00 0.00 60 1017.0
20260502181516 63 0 0.0 0.0 0.00 0.00 0.00 59 1016.0
20260502180806 64 0 0.0 0.0 0.00 0.00 0.00 58 1016.0
20260502170341 72 0 0.0 0.0 0.00 0.00 0.00 39 1016.0
20260502164213 72 0 0.0 0.0 0.00 0.00 0.00 36 1017.0
20260502163222 73 0 0.0 0.0 0.00 0.00 0.00 36 1017.0
20260502162513 73 0 0.0 0.0 0.00 0.00 0.00 35 1016.0
20260502161803 73 0 0.0 0.0 0.00 0.00 0.00 35 1017.0
20260502161054 74 0 0.0 0.0 0.00 0.00 0.00 36 1017.0
20260502160344 74 0 0.0 0.0 0.00 0.00 0.00 34 1016.0
20260502152048 74 0 0.0 0.0 0.00 0.00 0.00 33 1017.0
20260502151338 75 0 0.0 0.0 0.00 0.00 0.00 35 1017.0
20260502150629 75 0 0.0 0.0 0.00 0.00 0.00 33 1017.0
20260502130207 75 0 0.0 0.0 0.00 0.00 0.00 34 1018.0
20260502123757 75 0 0.0 0.0 0.00 0.00 0.00 36 1019.0
20260502123048 75 0 0.0 0.0 0.00 0.00 0.00 37 1019.0
20260502122338 75 0 0.0 0.0 0.00 0.00 0.00 37 1019.0
20260502121629 76 0 0.0 0.0 0.00 0.00 0.00 34 1019.0
20260502120919 76 0 0.0 0.0 0.00 0.00 0.00 38 1019.0
20260502120210 76 0 0.0 0.0 0.00 0.00 0.00 36 1019.0
20260502115501 76 0 0.0 0.0 0.00 0.00 0.00 36 1020.0
20260502114751 75 0 0.0 0.0 0.00 0.00 0.00 38 1019.0
20260502114042 74 0 0.0 0.0 0.00 0.00 0.00 36 1020.0
20260502113332 74 0 0.0 0.0 0.00 0.00 0.00 37 1020.0
20260502112623 75 0 0.0 0.0 0.00 0.00 0.00 39 1020.0
20260502111913 74 0 0.0 0.0 0.00 0.00 0.00 41 1020.0
20260502111204 74 0 0.0 0.0 0.00 0.00 0.00 39 1020.0
20260502110213 74 0 0.0 0.0 0.00 0.00 0.00 39 1020.0
20260502105504 74 0 0.0 0.0 0.00 0.00 0.00 40 1020.0
20260502104754 74 0 0.0 0.0 0.00 0.00 0.00 41 1020.0
20260502104045 74 0 0.0 0.0 0.00 0.00 0.00 39 1021.0
20260502103336 74 0 0.0 0.0 0.00 0.00 0.00 41 1021.0
20260502102626 74 0 0.0 0.0 0.00 0.00 0.00 41 1021.0
20260502101917 74 0 0.0 0.0 0.00 0.00 0.00 41 1021.0
20260502101207 74 0 0.0 0.0 0.00 0.00 0.00 39 1021.0
20260502100458 74 0 0.0 0.0 0.00 0.00 0.00 40 1021.0
20260502091210 72 0 0.0 0.0 0.00 0.00 0.00 42 1022.0
20260502090501 72 0 0.0 0.0 0.00 0.00 0.00 43 1022.0
20260502071458 68 0 0.0 0.0 0.00 0.00 0.00 55 1022.0
20260502070749 68 0 0.0 0.0 0.00 0.00 0.00 55 1022.0
20260502070039 66 0 0.0 0.0 0.00 0.00 0.00 56 1022.0
20260502065330 64 0 0.0 0.0 0.00 0.00 0.00 57 1022.0
20260502064620 64 0 0.0 0.0 0.00 0.00 0.00 58 1023.0
20260502063911 62 0 0.0 0.0 0.00 0.00 0.00 60 1022.0
20260502063201 62 0 0.0 0.0 0.00 0.00 0.00 61 1023.0
20260502062452 60 0 0.0 0.0 0.00 0.00 0.00 63 1022.0
20260502061742 59 0 0.0 0.0 0.00 0.00 0.00 63 1022.0
20260502061033 59 0 0.0 0.0 0.00 0.00 0.00 64 1022.0
20260502060323 58 0 0.0 0.0 0.00 0.00 0.00 65 1022.0
20260502055614 56 0 0.0 0.0 0.00 0.00 0.00 66 1022.0
20260502054904 56 0 0.0 0.0 0.00 0.00 0.00 66 1022.0
20260502054155 53 0 0.0 0.0 0.00 0.00 0.00 71 1022.0
20260502053205 46 0 0.0 0.0 0.00 0.00 0.00 84 1022.0
20260502052455 44 0 0.0 0.0 0.00 0.00 0.00 86 1022.0
20260502051746 42 0 0.0 0.0 0.00 0.00 0.00 86 1022.0
20260502051036 42 0 0.0 0.0 0.00 0.00 0.00 87 1022.0
20260502050327 41 0 0.0 0.0 0.00 0.00 0.00 87 1022.0
20260502045617 40 0 0.0 0.0 0.00 0.00 0.00 87 1022.0
20260502044908 40 0 0.0 0.0 0.00 0.00 0.00 86 1022.0
20260502044158 40 0 0.0 0.0 0.00 0.00 0.00 85 1022.0
20260502043449 39 0 0.0 0.0 0.00 0.00 0.00 85 1022.0
20260502042739 39 0 0.0 0.0 0.00 0.00 0.00 84 1022.0
20260502042030 39 0 0.0 0.0 0.00 0.00 0.00 85 1022.0
20260502041320 38 0 0.0 0.0 0.00 0.00 0.00 86 1022.0
20260502040611 38 0 0.0 0.0 0.00 0.00 0.00 84 1022.0
20260502035901 38 0 0.0 0.0 0.00 0.00 0.00 84 1022.0
20260502035152 38 0 0.0 0.0 0.00 0.00 0.00 84 1022.0